Regional Weather Roundup
Issued by NWS

Home | Current Version | Previous Version | Graphics & Text | Print | Product List | Glossary On
Versions: 1 2 3 4 5 6 7 8 9 10 11 12 13 14 15 16 17 18 19 20 21 22 23 24 25 26 27 28 29 30 31 32 33 34 35 36 37 38 39 40 41 42 43 44 45 46 47 48 49 50
000
ASUS43 KMPX 231301
RWRMN
WEATHER ROUNDUP FOR MINNESOTA
NATIONAL WEATHER SERVICE TWIN CITIES/CHANHASSEN MN
800 AM CDT TUE SEP 23 2014


NOTE: "FAIR" INDICATES FEW OR NO CLOUDS BELOW 12,000 FEET WITH NO
SIGNIFICANT WEATHER AND/OR OBSTRUCTIONS TO VISIBILITY. N/A MEANS
CURRENT SKY AND/OR WEATHER CONDITIONS ARE NOT AVAILABLE.

MNZ060>063-068>070-231400-
   Twin Cities Metro

CITY           SKY/WX    TMP DP  RH WIND       PRES   REMARKS
TWIN CITIES    PTCLDY    53  49  86 SE5       30.22R
ST PAUL        CLEAR     52  49  89 SE5       30.23R
CRYSTAL        CLEAR     50  48  93 S3        30.20R
BLAINE         CLEAR     52  52 100 SE3       30.21R
LAKEVILLE      CLEAR     46  46 100 CALM      30.22S
EDEN PRAIRIE   CLEAR     54  50  86 S5        30.20R
SOUTH ST PAUL  CLEAR     52  49  92 CALM      30.22S
LAKE ELMO      FAIR      46  46 100 CALM      30.23S
$$
MNZ001>005-007-008-013>017-022>024-027-028-231400-
   Northwest Minnesota

CITY           SKY/WX    TMP DP  RH WIND       PRES   REMARKS
BEMIDJI        CLEAR     45  44  99 SE3       30.12S
HALLOCK        CLEAR     54  48  82 SE10      30.01F
ROSEAU         CLEAR     52  46  82 S5        30.06S
WARROAD        CLEAR     52  48  87 S6        30.07S
THIEF RVR FALL CLEAR     52  46  82 SE7       30.06S
CROOKSTON      CLEAR     54  50  87 SE7       30.05S
FOSSTON        CLEAR     50  46  87 CALM      30.09S
DETROIT LAKES  CLEAR     54  50  87 SE7       30.11S
MOORHEAD       CLEAR     57  52  82 S12       30.07R
PARK RAPIDS    CLEAR     48  46  93 SE7       30.13R
MAHNOMEN       FAIR      51  48  89 SE6       30.08S
$$
MNZ006-009>011-018-025>026-231400-
   North Central Minnesota

CITY           SKY/WX    TMP DP  RH WIND       PRES   REMARKS
BAUDETTE       CLEAR     49  46  90 CALM      30.09F
FLAG ISLAND    CLEAR     57  54  88 SE9       30.06S
INTL FALLS     CLEAR     47  45  93 SE3       30.14R
WASKISH        CLEAR     52  50  93 CALM      30.11S
BIG FORK       CLEAR     41  39  93 CALM      30.16S
LONGVILLE      CLEAR     39  39 100 CALM      30.15S
GRAND RAPIDS   CLEAR     46  45  93 SE6       30.17R
CRANE LAKE     CLEAR     37  37 100 CALM      30.18R
ORR            CLEAR     48  46  93 CALM      30.15R
COOK           CLEAR     39  39 100 CALM      30.18R
WALKER         FAIR      52  47  84 S7        30.13S
$$
MNZ012-019>021-037-231400-
   Northeast Minnesota

CITY           SKY/WX    TMP DP  RH WIND       PRES   REMARKS
DULUTH         CLEAR     55  49  80 SW3       30.19S
ELY            CLEAR     41  39  93 CALM      30.19R
HIBBING        FOG       41  39  93 CALM      30.19S VSB 3/4
EVELETH        FOG       39  39 100 CALM      30.20S VSB<1/4
DULUTH HARBOR  SUNNY     52  48  87 S3        30.20S
TWO HARBORS    SUNNY     46  43  87 CALM      30.18S
SILVER BAY     SUNNY     46  46 100 CALM      30.18R
GRAND MARAIS     N/A     53  50  89 CALM      30.17R
G MARAIS ARPRT SUNNY     54  46  76 CALM      30.20S
$$
MNZ029>031-032-039>041-046>048-054>057-064-231400-
   West Central Minnesota

CITY           SKY/WX    TMP DP  RH WIND       PRES   REMARKS
FERGUS FALLS   CLEAR     55  46  71 SE9       30.10S
WHEATON        PTCLDY    48  46  93 SE10      30.09S
MORRIS         PTCLDY    52  48  87 SE10      30.10S
ALEXANDRIA     CLEAR     51  47  86 SE6       30.15R
ELBOW LAKE     FAIR      53  49  86 SE10      30.11S
WADENA         CLEAR     48  46  93 CALM      30.12S
GLENWOOD       PTCLDY    50  46  87 SE7       30.15R
APPLETON       MOCLDY    54  48  82 SE8       30.11S
BENSON         PTCLDY    52  48  87 S9        30.13S
ORTONVILLE     MOCLDY    50  46  87 SE8       30.09S
MADISON        MOCLDY    54  50  87 SE7       30.11S
WILLMAR        FAIR      52  48  87 SE7       30.16S
$$
MNZ033>034-036-042>043-049>051-058-059-231400-
   Central Minnesota

CITY           SKY/WX    TMP DP  RH WIND       PRES   REMARKS
ST CLOUD       CLEAR     52  48  86 SE6       30.18S
SAUK CENTRE    FAIR      50  47  90 SE6       30.16S
PAYNESVILLE    CLEAR     51  47  88 E7        30.16F
AITKIN         CLEAR     46  39  76 CALM      30.16S
PINE RIVER     CLEAR     46  46 100 CALM      30.18F
BRAINERD       CLEAR     46  46 100 CALM      30.17S
STAPLES        CLEAR     46  46 100 SE3       30.14S
LONG PRAIRIE   FAIR      48  46  93 SE3       30.16S
LITTLE FALLS   CLEAR     48  46  93 SE5       30.17S
LITCHFIELD     CLEAR     55  52  88 SE6       30.18S
BUFFALO        CLEAR     51  47  86 CALM      30.21R
MAPLE LAKE     CLEAR     51  50  96 SE3       30.20S
$$
MNZ037-044-045-052-053-231400-
   East Central Minnesota

CITY           SKY/WX    TMP DP  RH WIND       PRES   REMARKS
PRINCETON      PTCLDY    46  46 100 E1        30.20R
MORA           CLEAR     43  43 100 CALM      30.22S
CAMBRIDGE      CLEAR     54  45  71 SE3       30.19R
RUSH CITY      CLEAR     48  47  97 CALM      30.22R
MOOSE LAKE     FOG       41  39  93 CALM      30.19R VSB<1/4
HINCKLEY       FAIR      43  43 100 CALM      30.21R FOG
CLOQUET        CLEAR     48  46  93 CALM      30.19S
MCGREGOR       CLEAR     46  45  93 CALM      30.19R
$$
MNZ071>073-080-081-089-090-097-098-231400-
   Southwest Minnesota

CITY           SKY/WX    TMP DP  RH WIND       PRES   REMARKS
MONTEVIDEO     MOCLDY    52  50  93 S8        30.14S
GRANITE FALLS  MOCLDY    51  48  90 SE8       30.15F
CANBY          CLOUDY    52  49  90 CALM      30.12S
MARSHALL       CLOUDY    54  46  76 S10       30.13R
REDWOOD FALLS  MOCLDY    51  47  86 S8        30.16R
OLIVIA         MOCLDY    52  46  82 SE6       30.15F
PIPESTONE      CLOUDY    54  48  82 S7        30.14R
WINDOM         MOCLDY    54  48  82 S5        30.18R
WORTHINGTON    CLOUDY    54  48  82 S9        30.18S
JACKSON        MOCLDY    52  46  82 S8        30.19S
TRACY          MOCLDY    54  49  82 S9        30.15S
SLAYTON        CLOUDY    49  48  97 CALM      30.17R
$$
MNZ065>067-074>077-082>085-091>093-231400-
   South Central Minnesota

CITY           SKY/WX    TMP DP  RH WIND       PRES   REMARKS
MANKATO        CLEAR     52  45  76 S9        30.20S
NEW ULM        PTCLDY    48  48 100 S7        30.18S
ST JAMES       MOCLDY    52  46  82 SE5       30.20S
FAIRMONT       MOCLDY    50  45  81 S8        30.20S
GLENCOE        CLEAR     51  46  82 SE5       30.18F
FARIBAULT      CLEAR     54  46  76 S3        30.22S
OWATONNA       CLEAR     54  48  82 SE8       30.23R
WASECA         CLEAR     50  45  81 SE3       30.24R
ALBERT LEA     CLEAR     52  50  93 S3        30.24R
$$
MNZ078>079-086>088-094>096-231400-
   Southeast Minnesota

CITY           SKY/WX    TMP DP  RH WIND       PRES   REMARKS
ROCHESTER      SUNNY     49  47  93 S7        30.26R
RED WING       SUNNY     48  48 100 CALM      30.23R
STANTON        CLEAR     53  47  82 S3        30.21S
DODGE CENTER   CLEAR     52  48  87 S7        30.24S
WINONA         FOG       52  50  93 SE3       30.27R VSB<1/4
AUSTIN         CLEAR     48  46  93 CALM      30.24S
PRESTON        SUNNY     49  49 100 S3        30.27R
$$
ABBREVIATIONS USED IN REMARKS
   TC - TEMPERATURES IN CELSIUS
  WCI - WIND CHILL INDEX
   HX - HEAT INDEX
  VSB - VISIBILITY
$$


USA.gov is the U.S. government's official web portal to all federal, state and local government web resources and services.